Погода в Перудже

Италия     43°06′17″N   12°21′23″E
темп.,
°C
ветер,
м/с
пор.,
м/с
влажн.,
%
обл.,
%
осадки,
мм/ч
давл.,
гПа
погр.,
м
11 мая, вт
вт1123:00+14ю2274100 0.0 101512
02:00+12ююв11774 0.0 101510
05:00+11юв117776 0.0 101411
08:00+15юв126791 0.0 1014129
11:00+21ю364819 0.1 10131222
14:00+24ю6104082 0.1 10102210
17:00+17юз81475100 0.3 10111294
20:00+12ююз489289 2.8 1010374
12 мая, ср
ср1223:00+11ююз369776 0.1 1011281
02:00+10ю119712 0.9 101018
05:00+9ю229962 0.8 101081
08:00+11ю359295 0.8 1010402
11:00+15ююз577297 0.1 10101126
14:00+18ююз576096 0.4 10091644
17:00+16з476428 1.5 10101003
20:00+11зсз35690 1.5 1011100
13 мая, чт
чт1323:00+8ю017797 0.0 101110
02:00+9ю117356 0.0 101011
05:00+7ююв11945 0.0 100913
08:00+12ююв248727 0.0 1008298
11:00+16ююз466680 0.8 10071067
14:00+18ююз5858100 3.1 10061692
17:00+19юз664583 0.3 10051947
20:00+13ююз59770 0.4 1007408
14 мая, пт
пт1423:00+9ю22920 0.0 100923
02:00+7ююз22951 0.0 101024
05:00+6ююз229671 0.0 101037
08:00+11ю35823 0.0 1011267
11:00+17ююз45537 0.0 10111493
14:00+17ю896172 0.3 10101539
17:00+13ююз61088100 2.2 10111190
20:00+11ююв41194100 3.1 1010762
15 мая, сб
сб1523:00+10юв3997100 3.0 1010488
02:00+10всв2399100 7.8 1008148
05:00+10в1199100 8.7 100880
08:00+11зсз1294100 9.0 1010193
11:00+12зсз238772 0.0 1011419
14:00+18зсз345841 0.8 10101689
17:00+17з4569100 1.3 1011906
20:00+13зсз5986100 2.1 1012320